Regional Weather Roundup
Issued by NWS

Home | Current Version | Previous Version | Graphics & Text | Print | Product List | Glossary On
Versions: 1 2 3 4 5 6 7 8 9 10 11 12 13 14 15 16 17 18 19 20 21 22 23 24 25 26 27 28 29 30 31 32 33 34 35 36 37 38 39 40 41 42 43 44 45 46 47 48 49 50
000
ASUS43 KOAX 270810
RWRNE

WEATHER ROUNDUP FOR NEBRASKA
NATIONAL WEATHER SERVICE OMAHA NE
200 AM CST FRI FEB 27 2015

NOTES: SATELLITE DATA IS BEING USED TO AUGMENT CLOUD COVER ABOVE
       12000 FEET.
       "FAIR" INDICATES FEW OR NO CLOUDS BELOW 12,000 FEET WITH NO
       SIGNIFICANT WEATHER AND/OR OBSTRUCTIONS TO VISIBILITY.

  * THESE STATIONS DO NOT REPORT WEATHER SUCH AS RAIN...SNOW OR FOG.

NEZ001>004-019>022-054>056-270900-
NEBRASKA PANHANDLE

CITY           SKY/WX    TMP DP  RH WIND       PRES   REMARKS
SCOTTSBLUFF    CLOUDY     7   1  76 SE13      30.26F WCI  -9
ALLIANCE       CLEAR     -1  -6  79 SE6       30.27F WCI -13
CHADRON        CLEAR     -7 -12  79 CALM      30.33F
KIMBALL        LGT SNOW   5   2  86 SE12      30.14F WCI -10
SIDNEY         CLEAR      4  -3  73 SE10      30.24F WCI -11
$$

NEZ057>060-069>072-079>082-270900-
SOUTHWEST NEBRASKA

CITY           SKY/WX    TMP DP  RH WIND       PRES   REMARKS
NORTH PLATTE   CLEAR     -4  -9  79 E5        30.43S WCI -15
IMPERIAL         N/A      7  -4  60 SE13      30.36F WCI  -9
LEXINGTON      CLEAR     -1  -7  78 S5        30.48S WCI -12
MCCOOK         CLOUDY     9  -3  58 E7        30.45S WCI  -2
OGALLALA       PTCLDY     4  -3  72 E5        30.37S WCI  -6
$$

NEZ005>010-023>029-035>040-094-270900-
NORTH CENTRAL NEBRASKA

CITY           SKY/WX    TMP DP  RH WIND       PRES   REMARKS
VALENTINE      CLEAR     -4  -9  79 SW3       30.43S
AINSWORTH      CLEAR     -4  -8  81 SW5       30.43S WCI -14
BROKEN BOW     CLEAR     -7 -12  79 CALM      30.45F
O`NEILL        CLEAR     -2  -6  82 SW3       30.50S
ORD            CLEAR     -4 -11  72 CALM      30.49F
THEDFORD       CLEAR     -3  -8  81 CALM      30.42S
$$

NEZ041-046>049-061>064-073>077-083>087-270900-
SOUTH CENTRAL NEBRASKA

CITY           SKY/WX    TMP DP  RH WIND       PRES   REMARKS
GRAND ISLAND   CLEAR      1  -5  75 W5        30.54R WCI  -9
AURORA         CLEAR     -2  -8  77 N7        30.53S WCI -16
HASTINGS       CLEAR      0  -7  72 W5        30.51S WCI -10
HEBRON         CLEAR      1  -4  78 CALM      30.57S
HOLDREGE       CLEAR     -1  -7  73 CALM      30.48F
KEARNEY *      CLEAR      3  -4  72 CALM      30.50F
YORK             N/A      0  -4  85 N3        30.55R
$$

NEZ011>018-030>034-042>045-270900-
NORTHEAST NEBRASKA

CITY           SKY/WX    TMP DP  RH WIND       PRES   REMARKS
NORFOLK        CLEAR     -3  -8  79 W5        30.54S WCI -13
ALBION         CLEAR     -7 -13  74 CALM      30.53S
BLAIR          CLEAR     -1  -7  76 CALM      30.56R
COLUMBUS *     CLEAR      0 -13  55 CALM      30.57R
FREMONT        FAIR      -1  -6  78 W3        30.58S
TEKAMAH        CLEAR     -2  -8  76 NW8       30.60R WCI -17
WAYNE          CLEAR     -9 -14  78 S3        30.56S
$$

NEZ050>053-065>068-078-088>093-270900-
SOUTHEAST NEBRASKA

CITY           SKY/WX    TMP DP  RH WIND       PRES   REMARKS
LINCOLN        CLEAR     -4  -9  79 N7        30.60S WCI -18
OMAHA EPPLEY   CLEAR      0  -4  83 NW3       30.61R
BEATRICE       CLEAR     -1  -5  83 CALM      30.58R
FALLS CITY     CLEAR     -1  -6  79 NW3       30.60S
NEBRASKA CITY  CLEAR      1  -6  71 NW5       30.58S WCI  -9
PLATTSMOUTH    CLEAR      0  -5  78 NW5       30.58R WCI -10
$$

NEZ044-045-051>053-067-270900-
OMAHA AREA

CITY           SKY/WX    TMP DP  RH WIND       PRES   REMARKS
OMAHA EPPLEY   CLEAR      0  -4  83 NW3       30.61R
BLAIR          CLEAR     -1  -7  76 CALM      30.56R
FREMONT        FAIR      -1  -6  78 W3        30.58S
MILLARD        CLEAR      2  -5  72 NW6       30.60S WCI  -9
OFFUTT AFB     CLEAR      1  -5  73 NW2       30.59S
PLATTSMOUTH    CLEAR      0  -5  78 NW5       30.58R WCI -10
WAHOO          FAIR       1  -6  75 NW5       30.59S WCI  -9
$$



USA.gov is the U.S. government's official web portal to all federal, state and local government web resources and services.